Volver al catálogo

DELTA 1 DEB

ActivoSSO
NORAD 7083·DEBRIS·🇺🇸 United States

Lanzado Nov 6, 1973 desde Vandenberg Space Force Base

Loading…

Próximos Pases (próximas 24 horas)

TLE

ActualizadoSource: Space-Track

Época: Sep 13, 2026, 23:28 UTC

1 07083U 73086CB  26256.97829778  .00000007  00000-0  43601-3 0  9994
2 07083 102.4484 271.5224 0067162  36.2123 353.3779 12.32628073374910

Sigue DELTA 1 DEB en tiempo real con AllMySat

Download on the App Store